• In Netherlands
  • List of Countries
  • For 7 days
  • Water Temperature
  • Satellite Maps
  • Weather Map
  • Weather Widgets
  • user-avatar
    Login

    Hourly Weather Shkoder

    Today, 22 May, Monday

    Time Temperature Precipitation Wind Pressure Humidity
    00:00 +14°C° 0 mm 3 mps 738 mmHg 84%
    01:00 +14°C° 0 mm 2 mps 739 mmHg 86%
    02:00 +14°C° 0 mm 2 mps 738 mmHg 86%
    03:00 +14°C° 0 mm 2 mps 738 mmHg 85%
    04:00 +14°C° 0 mm 2 mps 738 mmHg 85%
    05:00 +16°C° 0 mm 2 mps 739 mmHg 79%
    06:00 +18°C° 0 mm 2 mps 739 mmHg 73%
    07:00 +20°C° 0 mm 2 mps 739 mmHg 67%
    08:00 +21°C° 0 mm 2 mps 739 mmHg 62%
    09:00 +24°C° 0 mm 2 mps 739 mmHg 57%
    10:00 +25°C° 0 mm 2 mps 739 mmHg 53%
    11:00 +25°C° 0.1 mm 3 mps 739 mmHg 51%
    12:00 +26°C° 0.1 mm 3 mps 739 mmHg 50%
    13:00 +26°C° 0.1 mm 3 mps 739 mmHg 49%
    14:00 +26°C° 0.1 mm 3 mps 739 mmHg 51%
    15:00 +26°C° 0.1 mm 3 mps 739 mmHg 53%
    16:00 +25°C° 0.1 mm 3 mps 738 mmHg 55%
    17:00 +22°C° 0.1 mm 3 mps 738 mmHg 64%
    18:00 +20°C° 0.1 mm 2 mps 739 mmHg 73%
    19:00 +17°C° 0.1 mm 2 mps 739 mmHg 82%
    20:00 +17°C° 0 mm 2 mps 739 mmHg 83%
    21:00 +17°C° 0 mm 2 mps 739 mmHg 83%
    22:00 +16°C° 0 mm 2 mps 740 mmHg 83%
    23:00 +16°C° 0.2 mm 2 mps 740 mmHg 84%

    Tomorrow, 23 May, Tuesday

    Time Temperature Precipitation Wind Pressure Humidity
    00:00 +16°C° 0.2 mm 2 mps 740 mmHg 84%
    01:00 +16°C° 0.2 mm 2 mps 739 mmHg 85%
    02:00 +15°C° 0.1 mm 2 mps 739 mmHg 85%
    03:00 +15°C° 0.1 mm 2 mps 739 mmHg 86%
    04:00 +15°C° 0.1 mm 2 mps 739 mmHg 86%
    05:00 +18°C° 0 mm 1 mps 739 mmHg 80%
    06:00 +20°C° 0 mm 1 mps 740 mmHg 75%
    07:00 +22°C° 0 mm 1 mps 740 mmHg 69%
    08:00 +23°C° 0.1 mm 1 mps 740 mmHg 63%
    09:00 +25°C° 0.1 mm 1 mps 740 mmHg 57%
    10:00 +26°C° 0.1 mm 1 mps 740 mmHg 51%
    11:00 +26°C° 0.6 mm 1 mps 740 mmHg 53%
    12:00 +26°C° 0.6 mm 2 mps 739 mmHg 55%
    13:00 +26°C° 0.6 mm 2 mps 739 mmHg 58%
    14:00 +26°C° 1.1 mm 2 mps 739 mmHg 61%
    15:00 +25°C° 1.1 mm 2 mps 739 mmHg 64%
    16:00 +25°C° 1.1 mm 2 mps 739 mmHg 67%
    17:00 +22°C° 1.1 mm 1 mps 739 mmHg 75%
    18:00 +20°C° 1.1 mm 1 mps 739 mmHg 82%
    19:00 +18°C° 1.1 mm 1 mps 739 mmHg 89%
    20:00 +16°C° 0.3 mm 1 mps 739 mmHg 91%
    21:00 +16°C° 0.3 mm 1 mps 739 mmHg 92%
    22:00 +15°C° 0.3 mm 1 mps 740 mmHg 93%
    23:00 +15°C° 0.2 mm 1 mps 740 mmHg 93%

    Day after tomorrow, 24 May, Wednesday

    Time Temperature Precipitation Wind Pressure Humidity
    00:00 +15°C° 0.2 mm 1 mps 740 mmHg 94%
    01:00 +14°C° 0.2 mm 1 mps 740 mmHg 94%
    02:00 +14°C° 0.1 mm 1 mps 740 mmHg 95%
    03:00 +14°C° 0.1 mm 1 mps 739 mmHg 95%
    04:00 +14°C° 0.1 mm 1 mps 739 mmHg 95%
    05:00 +16°C° 0.1 mm 1 mps 739 mmHg 90%
    06:00 +19°C° 0.1 mm 1 mps 740 mmHg 85%
    07:00 +21°C° 0.1 mm 1 mps 740 mmHg 79%
    08:00 +23°C° 0.1 mm 1 mps 740 mmHg 72%
    09:00 +24°C° 0.1 mm 1 mps 740 mmHg 65%
    10:00 +26°C° 0.1 mm 1 mps 740 mmHg 58%
    11:00 +26°C° 0.8 mm 2 mps 740 mmHg 60%
    12:00 +26°C° 0.8 mm 2 mps 739 mmHg 62%
    13:00 +25°C° 0.8 mm 2 mps 739 mmHg 65%
    14:00 +25°C° 1.2 mm 2 mps 739 mmHg 68%
    15:00 +24°C° 1.2 mm 2 mps 739 mmHg 71%
    16:00 +24°C° 1.2 mm 2 mps 738 mmHg 75%
    17:00 +22°C° 0.8 mm 1 mps 738 mmHg 81%
    18:00 +20°C° 0.8 mm 1 mps 738 mmHg 87%
    19:00 +16°C° 0.8 mm 0 mps 738 mmHg 93%
    20:00 +18°C° 0.3 mm 1 mps 739 mmHg 93%
    21:00 +16°C° 0.3 mm 1 mps 739 mmHg 94%
    22:00 +15°C° 0.3 mm 1 mps 739 mmHg 95%
    23:00 +15°C° 0.1 mm 1 mps 739 mmHg 95%

    25 May, Thursday

    Time Temperature Precipitation Wind Pressure Humidity
    00:00 +15°C° 0.1 mm 1 mps 738 mmHg 95%
    01:00 +14°C° 0.1 mm 1 mps 738 mmHg 95%
    02:00 +14°C° 0.1 mm 1 mps 738 mmHg 96%
    03:00 +14°C° 0.1 mm 1 mps 738 mmHg 96%
    04:00 +14°C° 0.1 mm 1 mps 738 mmHg 96%
    05:00 +15°C° 0.3 mm 1 mps 738 mmHg 92%
    06:00 +18°C° 0.3 mm 1 mps 738 mmHg 88%
    07:00 +20°C° 0.3 mm 1 mps 739 mmHg 84%
    08:00 +20°C° 0.8 mm 1 mps 739 mmHg 81%
    09:00 +21°C° 0.8 mm 1 mps 739 mmHg 78%
    10:00 +20°C° 0.8 mm 2 mps 739 mmHg 76%
    11:00 +19°C° 1.5 mm 2 mps 739 mmHg 80%
    12:00 +19°C° 1.5 mm 2 mps 739 mmHg 83%
    13:00 +18°C° 1.5 mm 2 mps 738 mmHg 87%
    14:00 +18°C° 0.9 mm 2 mps 738 mmHg 86%
    15:00 +17°C° 0.9 mm 2 mps 738 mmHg 84%
    16:00 +17°C° 0.9 mm 3 mps 738 mmHg 82%
    17:00 +16°C° 0.2 mm 2 mps 738 mmHg 84%
    18:00 +15°C° 0.2 mm 2 mps 738 mmHg 85%
    19:00 +14°C° 0.2 mm 2 mps 738 mmHg 86%
    20:00 +14°C° 0 mm 2 mps 738 mmHg 86%
    21:00 +13°C° 0 mm 2 mps 739 mmHg 87%
    22:00 +13°C° 0 mm 2 mps 739 mmHg 87%
    23:00 +12°C° 0 mm 2 mps 739 mmHg 87%

    26 May, Friday

    Time Temperature Precipitation Wind Pressure Humidity
    00:00 +12°C° 0 mm 2 mps 738 mmHg 87%
    01:00 +12°C° 0 mm 2 mps 738 mmHg 87%
    02:00 +12°C° 0 mm 2 mps 738 mmHg 87%
    03:00 +12°C° 0 mm 2 mps 738 mmHg 87%
    04:00 +10°C° 0 mm 2 mps 737 mmHg 87%
    05:00 +13°C° 0.1 mm 2 mps 737 mmHg 83%
    06:00 +14°C° 0.1 mm 2 mps 737 mmHg 78%
    07:00 +16°C° 0.1 mm 2 mps 737 mmHg 73%
    08:00 +17°C° 0.2 mm 2 mps 737 mmHg 68%
    09:00 +18°C° 0.2 mm 2 mps 737 mmHg 62%
    10:00 +19°C° 0.2 mm 2 mps 737 mmHg 56%
    11:00 +20°C° 0.4 mm 2 mps 737 mmHg 56%
    12:00 +20°C° 0.4 mm 3 mps 737 mmHg 57%
    13:00 +20°C° 0.4 mm 3 mps 736 mmHg 57%
    14:00 +20°C° 0.3 mm 3 mps 736 mmHg 58%
    15:00 +20°C° 0.3 mm 3 mps 736 mmHg 60%
    16:00 +19°C° 0.3 mm 3 mps 736 mmHg 62%
    17:00 +18°C° 0.1 mm 2 mps 736 mmHg 67%
    18:00 +17°C° 0.1 mm 2 mps 736 mmHg 73%
    19:00 +15°C° 0.1 mm 2 mps 736 mmHg 79%
    20:00 +15°C° 0 mm 2 mps 737 mmHg 81%
    21:00 +14°C° 0 mm 2 mps 737 mmHg 82%
    22:00 +14°C° 0 mm 2 mps 737 mmHg 84%
    23:00 +14°C° 0 mm 2 mps 737 mmHg 85%

    27 May, Saturday

    Time Temperature Precipitation Wind Pressure Humidity
    00:00 +12°C° 0 mm 3 mps 737 mmHg 86%
    01:00 +12°C° 0 mm 3 mps 737 mmHg 87%
    02:00 +12°C° 0 mm 3 mps 737 mmHg 87%
    03:00 +12°C° 0 mm 3 mps 737 mmHg 88%
    04:00 +12°C° 0 mm 3 mps 737 mmHg 88%
    05:00 +13°C° 0 mm 3 mps 737 mmHg 83%
    06:00 +16°C° 0 mm 2 mps 738 mmHg 77%
    07:00 +18°C° 0 mm 2 mps 738 mmHg 71%
    08:00 +19°C° 0.1 mm 2 mps 738 mmHg 66%
    09:00 +20°C° 0.1 mm 2 mps 738 mmHg 61%
    10:00 +23°C° 0.1 mm 2 mps 738 mmHg 55%
    11:00 +22°C° 0.1 mm 3 mps 738 mmHg 54%
    12:00 +22°C° 0.1 mm 3 mps 738 mmHg 53%
    13:00 +23°C° 0.1 mm 4 mps 738 mmHg 52%
    14:00 +23°C° 0.1 mm 4 mps 738 mmHg 53%
    15:00 +22°C° 0.1 mm 4 mps 738 mmHg 55%
    16:00 +22°C° 0.1 mm 4 mps 738 mmHg 56%
    17:00 +20°C° 0 mm 3 mps 738 mmHg 63%
    18:00 +19°C° 0 mm 3 mps 738 mmHg 70%
    19:00 +17°C° 0 mm 3 mps 739 mmHg 77%
    20:00 +16°C° 0 mm 3 mps 739 mmHg 79%
    21:00 +16°C° 0 mm 3 mps 739 mmHg 81%
    22:00 +14°C° 0 mm 3 mps 739 mmHg 83%
    23:00 +14°C° 0 mm 3 mps 739 mmHg 84%
    Show more